WetterOnline ( http://www.wetteronline.de )

Wetter aktuell Meßstetten

Aktuelles Wetter: Messstetten (900m)

6-stündlich | Neueste Meldungen
Ortszeit Temperatur Wetter
Fr, 22.02. 13:00 5.5° C bedeckt
Fr, 22.02. 7:00 4.3° C bedeckt
Fr, 22.02. 1:00 4.8° C bedeckt
Do, 21.02. 19:00 5.6° C wolkig
Do, 21.02. 13:00 9.4° C wolkenlos
Do, 21.02. 7:00 -3.7° C Nebel
Do, 21.02. 1:00 -0.2° C leicht bewölkt
Mi, 20.02. 19:00 1.4° C bewölkt
Ortszeit Temperatur Wetter
Fr, 22.02. 18:00 3.0° C wolkenlos
Fr, 22.02. 17:40 3.7° C wolkenlos
Fr, 22.02. 17:30 5.3° C wolkenlos
Fr, 22.02. 17:20 5.3° C wolkenlos
Fr, 22.02. 17:10 5.3° C leicht bewölkt
Fr, 22.02. 17:00 5.8° C bewölkt
Fr, 22.02. 16:50 5.8° C bewölkt
Fr, 22.02. 16:30 5.8° C bewölkt
Fr, 22.02. 16:00 6.1° C wolkig
Fr, 22.02. 15:30 5.6° C bedeckt
Fr, 22.02. 15:00 6.3° C bedeckt
Ortszeit Relative Feuchte Sichtweite
Fr, 22.02. 13:00 85% 13 km
Fr, 22.02. 7:00 95% 4.5 km
Fr, 22.02. 1:00 85% 15 km
Do, 21.02. 19:00 65% 40 km
Do, 21.02. 13:00 51% 27 km
Do, 21.02. 7:00 96% 0.9 km
Do, 21.02. 1:00 91% 13 km
Mi, 20.02. 19:00 86% 21 km
Ortszeit Relative Feuchte Sichtweite
Fr, 22.02. 18:00 86% 10 km
Fr, 22.02. 17:40 84% -
Fr, 22.02. 17:30 79% 14 km
Fr, 22.02. 17:20 79% -
Fr, 22.02. 17:10 80% -
Fr, 22.02. 17:00 77% 14 km
Fr, 22.02. 16:50 77% -
Fr, 22.02. 16:30 77% 15 km
Fr, 22.02. 16:00 77% 14 km
Fr, 22.02. 15:30 79% 16 km
Fr, 22.02. 15:00 78% 15 km
Ortszeit Niederschlagsmenge Niederschlagsart
Fr, 22.02. 13:00 0.1 l/m2 in 6 Std. Regen
Fr, 22.02. 7:00 0.1 l/m2 in 12 Std. Regen
Fr, 22.02. 1:00 0.1 l/m2 in 6 Std. Regen
Do, 21.02. 19:00 0.0 l/m2 in 12 Std. -
Do, 21.02. 13:00 0.0 l/m2 in 6 Std. -
Do, 21.02. 7:00 0.0 l/m2 in 12 Std. -
Do, 21.02. 1:00 0.0 l/m2 in 6 Std. -
Mi, 20.02. 19:00 0.0 l/m2 in 12 Std. -
Ortszeit Niederschlagsmenge Niederschlagsart
Fr, 22.02. 18:00 0.0 l/m2 in 1 Std. -
Fr, 22.02. 17:40 keine Meldung -
Fr, 22.02. 17:30 0.0 l/m2 in 1 Std. -
Fr, 22.02. 17:20 keine Meldung -
Fr, 22.02. 17:10 keine Meldung -
Fr, 22.02. 17:00 0.0 l/m2 in 1 Std. -
Fr, 22.02. 16:50 keine Meldung -
Fr, 22.02. 16:30 0.0 l/m2 in 1 Std. -
Fr, 22.02. 16:00 0.0 l/m2 in 1 Std. -
Fr, 22.02. 15:30 0.0 l/m2 in 1 Std. -
Fr, 22.02. 15:00 0.0 l/m2 in 1 Std. -
Ortszeit Stärke Spitze Richtung
km/h Bft. km/h Grad Sektor
Fr, 22.02. 13:00 2 1 24 60° NO
Fr, 22.02. 7:00 7 2 18 300° NW
Fr, 22.02. 1:00 7 2 15 300° NW
Do, 21.02. 19:00 7 2 25 270° W
Do, 21.02. 13:00 11 2 17 240° SW
Do, 21.02. 7:00 0 0 4 - -
Do, 21.02. 1:00 4 1 7 110° O
Mi, 20.02. 19:00 2 1 22 90° O
Ortszeit Stärke Spitze Richtung
km/h Bft. km/h Grad Sektor
Fr, 22.02. 18:00 4 1 7 30° NO
Fr, 22.02. 17:40 4 1 - 40° NO
Fr, 22.02. 17:30 2 1 7 310° NW
Fr, 22.02. 17:20 2 1 - 310° NW
Fr, 22.02. 17:10 2 1 - 350° N
Fr, 22.02. 17:00 4 1 14 40° NO
Fr, 22.02. 16:50 4 1 - 40° NO
Fr, 22.02. 16:30 4 1 14 340° N
Fr, 22.02. 16:00 6 1 15 330° NW
Fr, 22.02. 15:30 4 1 11 330° NW
Fr, 22.02. 15:00 4 1 14 340° N
Ortszeit Untergrenze Bedeckung Gattung
total tief tief mittel hoch
Fr, 22.02. 13:00 180 m 8/8 8/8 - - -
Fr, 22.02. 7:00 90 m 8/8 8/8 - - -
Fr, 22.02. 1:00 450 m 8/8 8/8 - - -
Do, 21.02. 19:00 1320 m 7/8 1/8 - - -
Do, 21.02. 13:00 - 0/8 0/8 - - -
Do, 21.02. 7:00 10500 m 2/8 0/8 - - -
Do, 21.02. 1:00 3000 m 3/8 3/8 - - -
Mi, 20.02. 19:00 3300 m 8/8 4/8 - - -
Ortszeit Bedeckungsgrad in Achtel und Wolkenuntergrenze
Fr, 22.02. 18:00 keine Wolken
Fr, 22.02. 17:40 keine Wolken
Fr, 22.02. 17:30 keine Wolken
Fr, 22.02. 17:20 keine Wolken
Fr, 22.02. 17:10 2(990m)
Fr, 22.02. 17:00 7(990m)
Fr, 22.02. 16:50 7(990m)
Fr, 22.02. 16:30 2(480m) 7(1020m) 8(990m)
Fr, 22.02. 16:00 1(420m) 5(1080m)
Fr, 22.02. 15:30 2(420m) 7(750m) 8(900m)
Fr, 22.02. 15:00 2(360m) 4(690m) 8(1020m)
Ortszeit Stationsdruck (hPa) Tendenz (hPa in 3 Std.)
Fr, 22.02. 13:00 928 + 0,6
Fr, 22.02. 7:00 926 + 0,4
Fr, 22.02. 1:00 925 + 0,6
Do, 21.02. 19:00 924 + 1,3
Do, 21.02. 13:00 923 - 0,1
Do, 21.02. 7:00 922 + 0,5
Do, 21.02. 1:00 922 + 0,6
Mi, 20.02. 19:00 920 + 0,6
Ortszeit Stationsdruck (hPa) Tendenz (hPa in 3 Std.)
Fr, 22.02. 18:00 929 + 0,7
Fr, 22.02. 17:40 929 keine Meldung
Fr, 22.02. 17:30 929 + 0,5
Fr, 22.02. 17:20 929 keine Meldung
Fr, 22.02. 17:10 929 keine Meldung
Fr, 22.02. 17:00 929 + 0,4
Fr, 22.02. 16:50 929 keine Meldung
Fr, 22.02. 16:30 929 + 0,7
Fr, 22.02. 16:00 929 + 0,5
Fr, 22.02. 15:30 928 + 0,4
Fr, 22.02. 15:00 928 + 0,3
Ortszeit Schneehöhe (cm)
Fr, 22.02. 13:00 10
Fr, 22.02. 7:00 10
Fr, 22.02. 1:00 11
Do, 21.02. 19:00 11
Do, 21.02. 13:00 14
Do, 21.02. 7:00 14
Do, 21.02. 1:00 14
Mi, 20.02. 19:00 14
Ortszeit Schneehöhe (cm)
Fr, 22.02. 18:00 9
Fr, 22.02. 17:40 9
Fr, 22.02. 17:30 9
Fr, 22.02. 17:20 9
Fr, 22.02. 17:10 9
Fr, 22.02. 17:00 9
Fr, 22.02. 16:50 9
Fr, 22.02. 16:30 9
Fr, 22.02. 16:00 9
Fr, 22.02. 15:30 9
Fr, 22.02. 15:00 9
Link zu dieser Seite / Seite empfehlen

Das Wetter in ...